sat.trackr.live / text

‹ back to catalog

STARLINK-35805

NORAD 66359 · 2025-254M

PAYLOAD ACTIVE UNKNOWN

§ Identity

Operator
Country
US
Launch date
2025-11-06
Launch site
AFWTR
Launch vehicle
Mass (kg)
RCS (m²)

Purposes: comms

External: N2YO · Heavens-Above · Gunter

§ Orbital elements

Epoch: 2026-05-24T23:40:59.572704Z

Period
94.01 min
Inclination
53.1596°
Eccentricity
0.0001632
Mean motion
15.31706708 rev/d
Perigee alt
469.6 km
Apogee alt
471.8 km
Semi-major
6,848.9 km
B*
6.5396e-4
RAAN
237.5923°
Arg perigee
109.9742°
Mean anomaly
250.1436°
Rev number
3,179

§ Raw data

STARLINK-358051 66359U 25254M   26144.98680061  .00019987  00000+0  65396-3 0  99972 66359  53.1596 237.5923 0001632 109.9742 250.1436 15.31706708 31794

JSON: /api/v1/satellites/66359 · /tle

For live sub-satellite position, see the globe view (requires WebGL).

§ Visibility from observer

Set your observer location to see the next 7 days of passes ≥ 10°. The values pass through the URL so the page stays shareable.

No JS? Fill the form by hand. The geolocation button needs JavaScript.